Stündliche Wetter Holst

Heute, 21 Juni, Montag

Zeit Temperatur Niederschläge Wind Luftdruck Luftfeuchtigkeit
00:00 +17°C° 0 mm 4 m/S 633 mmHg 58%
01:00 +17°C° 0 mm 4 m/S 633 mmHg 58%
02:00 +15°C° 0 mm 4 m/S 633 mmHg 58%
03:00 +15°C° 0 mm 4 m/S 633 mmHg 58%
04:00 +17°C° 0 mm 3 m/S 633 mmHg 57%
05:00 +18°C° 0 mm 3 m/S 633 mmHg 56%
06:00 +18°C° 0 mm 3 m/S 633 mmHg 56%
07:00 +20°C° 0 mm 3 m/S 634 mmHg 52%
08:00 +22°C° 0 mm 3 m/S 634 mmHg 49%
09:00 +25°C° 0 mm 2 m/S 634 mmHg 45%
10:00 +26°C° 0 mm 2 m/S 635 mmHg 45%
11:00 +26°C° 0 mm 3 m/S 635 mmHg 45%
12:00 +27°C° 0 mm 3 m/S 635 mmHg 45%
13:00 +27°C° 0 mm 3 m/S 635 mmHg 46%
14:00 +27°C° 0 mm 3 m/S 635 mmHg 47%
15:00 +27°C° 0 mm 3 m/S 634 mmHg 47%
16:00 +26°C° 0 mm 3 m/S 634 mmHg 52%
17:00 +25°C° 0 mm 3 m/S 634 mmHg 56%
18:00 +24°C° 0 mm 3 m/S 634 mmHg 60%
19:00 +21°C° 0 mm 3 m/S 634 mmHg 60%
20:00 +20°C° 0 mm 3 m/S 634 mmHg 61%
21:00 +18°C° 0 mm 3 m/S 634 mmHg 61%
22:00 +18°C° 0 mm 3 m/S 634 mmHg 58%
23:00 +18°C° 0 mm 3 m/S 633 mmHg 56%

Morgen, 22 Juni, Dienstag

Zeit Temperatur Niederschläge Wind Luftdruck Luftfeuchtigkeit
00:00 +17°C° 0 mm 3 m/S 633 mmHg 53%
01:00 +17°C° 0 mm 3 m/S 633 mmHg 51%
02:00 +17°C° 0 mm 3 m/S 632 mmHg 50%
03:00 +17°C° 0 mm 3 m/S 632 mmHg 48%
04:00 +18°C° 0 mm 3 m/S 633 mmHg 50%
05:00 +19°C° 0 mm 2 m/S 633 mmHg 52%
06:00 +20°C° 0 mm 2 m/S 633 mmHg 55%
07:00 +23°C° 0 mm 2 m/S 633 mmHg 51%
08:00 +24°C° 0 mm 2 m/S 634 mmHg 48%
09:00 +26°C° 0 mm 1 m/S 634 mmHg 45%
10:00 +27°C° 0 mm 2 m/S 634 mmHg 45%
11:00 +27°C° 0 mm 2 m/S 634 mmHg 44%
12:00 +28°C° 0 mm 2 m/S 635 mmHg 44%
13:00 +28°C° 0 mm 2 m/S 635 mmHg 45%
14:00 +27°C° 0 mm 2 m/S 634 mmHg 45%
15:00 +27°C° 0 mm 2 m/S 634 mmHg 46%
16:00 +26°C° 0 mm 2 m/S 634 mmHg 49%
17:00 +26°C° 0 mm 2 m/S 634 mmHg 53%
18:00 +25°C° 0 mm 2 m/S 634 mmHg 57%
19:00 +22°C° 0 mm 3 m/S 634 mmHg 54%
20:00 +20°C° 0 mm 3 m/S 634 mmHg 52%
21:00 +18°C° 0 mm 3 m/S 633 mmHg 49%
22:00 +18°C° 0 mm 3 m/S 633 mmHg 46%
23:00 +18°C° 0 mm 3 m/S 633 mmHg 44%

übermorgen, 23 Juni, Mittwoch

Zeit Temperatur Niederschläge Wind Luftdruck Luftfeuchtigkeit
00:00 +17°C° 0 mm 3 m/S 633 mmHg 41%
01:00 +17°C° 0 mm 3 m/S 633 mmHg 42%
02:00 +17°C° 0 mm 3 m/S 633 mmHg 43%
03:00 +17°C° 0 mm 3 m/S 633 mmHg 44%
04:00 +17°C° 0.1 mm 3 m/S 633 mmHg 47%
05:00 +18°C° 0.1 mm 3 m/S 633 mmHg 50%
06:00 +19°C° 0.1 mm 2 m/S 633 mmHg 53%
07:00 +20°C° 0 mm 2 m/S 634 mmHg 49%
08:00 +23°C° 0 mm 2 m/S 634 mmHg 45%
09:00 +25°C° 0 mm 2 m/S 635 mmHg 41%
10:00 +26°C° 0 mm 2 m/S 635 mmHg 42%
11:00 +26°C° 0 mm 2 m/S 635 mmHg 43%
12:00 +27°C° 0 mm 2 m/S 635 mmHg 43%
13:00 +27°C° 0 mm 2 m/S 635 mmHg 44%
14:00 +27°C° 0 mm 2 m/S 635 mmHg 46%
15:00 +27°C° 0 mm 2 m/S 635 mmHg 47%
16:00 +26°C° 0.1 mm 2 m/S 635 mmHg 50%
17:00 +25°C° 0.1 mm 2 m/S 635 mmHg 54%
18:00 +24°C° 0.1 mm 2 m/S 635 mmHg 58%
19:00 +21°C° 0 mm 2 m/S 635 mmHg 57%
20:00 +19°C° 0 mm 2 m/S 634 mmHg 57%
21:00 +17°C° 0 mm 3 m/S 634 mmHg 56%
22:00 +17°C° 0 mm 3 m/S 634 mmHg 51%
23:00 +17°C° 0 mm 3 m/S 634 mmHg 47%

24 Juni, Donnerstag

Zeit Temperatur Niederschläge Wind Luftdruck Luftfeuchtigkeit
00:00 +17°C° 0 mm 3 m/S 634 mmHg 42%
01:00 +16°C° 0 mm 3 m/S 633 mmHg 44%
02:00 +16°C° 0 mm 3 m/S 633 mmHg 46%
03:00 +16°C° 0 mm 3 m/S 633 mmHg 48%
04:00 +17°C° 0 mm 3 m/S 633 mmHg 49%
05:00 +17°C° 0 mm 2 m/S 633 mmHg 50%
06:00 +18°C° 0 mm 2 m/S 634 mmHg 51%
07:00 +20°C° 0 mm 2 m/S 634 mmHg 48%
08:00 +23°C° 0 mm 2 m/S 634 mmHg 45%
09:00 +24°C° 0 mm 2 m/S 635 mmHg 42%
10:00 +25°C° 0 mm 2 m/S 635 mmHg 43%
11:00 +26°C° 0 mm 2 m/S 635 mmHg 44%
12:00 +26°C° 0 mm 2 m/S 635 mmHg 45%
13:00 +26°C° 0.1 mm 2 m/S 635 mmHg 47%
14:00 +26°C° 0.1 mm 2 m/S 635 mmHg 49%
15:00 +26°C° 0.1 mm 2 m/S 635 mmHg 51%
16:00 +25°C° 0.1 mm 2 m/S 635 mmHg 53%
17:00 +24°C° 0.1 mm 2 m/S 635 mmHg 56%
18:00 +24°C° 0.1 mm 2 m/S 635 mmHg 59%
19:00 +21°C° 0 mm 2 m/S 635 mmHg 60%
20:00 +19°C° 0 mm 2 m/S 634 mmHg 60%
21:00 +17°C° 0 mm 3 m/S 634 mmHg 61%
22:00 +17°C° 0 mm 3 m/S 634 mmHg 57%
23:00 +17°C° 0 mm 3 m/S 634 mmHg 53%

25 Juni, Freitag

Zeit Temperatur Niederschläge Wind Luftdruck Luftfeuchtigkeit
00:00 +17°C° 0 mm 3 m/S 634 mmHg 49%
01:00 +17°C° 0 mm 3 m/S 633 mmHg 48%
02:00 +16°C° 0 mm 3 m/S 633 mmHg 47%
03:00 +16°C° 0 mm 3 m/S 633 mmHg 47%
04:00 +17°C° 0 mm 3 m/S 633 mmHg 48%
05:00 +18°C° 0 mm 3 m/S 634 mmHg 50%
06:00 +18°C° 0 mm 2 m/S 634 mmHg 52%
07:00 +20°C° 0 mm 2 m/S 634 mmHg 49%
08:00 +23°C° 0 mm 2 m/S 634 mmHg 47%
09:00 +24°C° 0 mm 1 m/S 635 mmHg 45%
10:00 +25°C° 0 mm 2 m/S 635 mmHg 45%
11:00 +26°C° 0 mm 2 m/S 635 mmHg 45%
12:00 +26°C° 0 mm 2 m/S 635 mmHg 45%
13:00 +26°C° 0.1 mm 2 m/S 635 mmHg 46%
14:00 +26°C° 0.1 mm 2 m/S 635 mmHg 48%
15:00 +26°C° 0.1 mm 2 m/S 635 mmHg 49%
16:00 +25°C° 0.1 mm 2 m/S 635 mmHg 53%
17:00 +24°C° 0.1 mm 2 m/S 635 mmHg 56%
18:00 +24°C° 0.1 mm 2 m/S 635 mmHg 59%
19:00 +21°C° 0 mm 2 m/S 634 mmHg 60%
20:00 +19°C° 0 mm 2 m/S 634 mmHg 61%
21:00 +18°C° 0 mm 2 m/S 634 mmHg 62%
22:00 +17°C° 0 mm 2 m/S 634 mmHg 57%
23:00 +17°C° 0 mm 3 m/S 633 mmHg 53%

26 Juni, Samstag

Zeit Temperatur Niederschläge Wind Luftdruck Luftfeuchtigkeit
00:00 +17°C° 0 mm 3 m/S 633 mmHg 48%
01:00 +17°C° 0 mm 3 m/S 633 mmHg 48%
02:00 +16°C° 0 mm 3 m/S 633 mmHg 48%
03:00 +16°C° 0 mm 3 m/S 632 mmHg 48%
04:00 +17°C° 0 mm 3 m/S 633 mmHg 50%
05:00 +18°C° 0 mm 3 m/S 633 mmHg 52%
06:00 +18°C° 0 mm 3 m/S 633 mmHg 53%
07:00 +20°C° 0 mm 2 m/S 633 mmHg 52%
08:00 +21°C° 0 mm 2 m/S 634 mmHg 50%
09:00 +24°C° 0 mm 1 m/S 634 mmHg 48%
10:00 +24°C° 0.1 mm 2 m/S 634 mmHg 50%
11:00 +25°C° 0.1 mm 2 m/S 634 mmHg 52%
12:00 +25°C° 0.1 mm 2 m/S 634 mmHg 54%
13:00 +25°C° 0.2 mm 2 m/S 634 mmHg 54%
14:00 +25°C° 0.2 mm 2 m/S 634 mmHg 54%
15:00 +25°C° 0.2 mm 2 m/S 634 mmHg 55%
16:00 +24°C° 0.3 mm 2 m/S 634 mmHg 59%
17:00 +24°C° 0.3 mm 1 m/S 634 mmHg 63%
18:00 +23°C° 0.3 mm 1 m/S 634 mmHg 67%
19:00 +22°C° 0.2 mm 1 m/S 633 mmHg 69%
20:00 +20°C° 0.2 mm 1 m/S 633 mmHg 72%
21:00 +18°C° 0.2 mm 2 m/S 633 mmHg 74%
22:00 +18°C° 0.1 mm 2 m/S 633 mmHg 72%
23:00 +17°C° 0.1 mm 3 m/S 632 mmHg 71%
Mehr zeigen

Wir brauchen deine Erlaubnis

Meteoprog und unser Service Anbieter werden persönliche Daten aufbewahren, so wie Cookies, Geräte Bezeichnung oder ähnliche Technologien von deinem Gerät und Prozess, so wie Persönliche Daten Inhalte und Werbungen, genauso wie social Media und den Verkehr zu analysieren.

  • Aufbewahrung und/oder Zugang zu deiner Geräte Informationen.

    Cookies, Geräte Bezeichnung oder andere Informationen, können aufbewahrt oder Zugang zu deinem Gerät erhalten, für den Grund, der oben angegeben wird.

  • Personalisierte Werbung und Inhalte, Messungen, Einblick in das Publikum und Produkt Entwicklung.

    Werbungen und Inhalte können personalisiert werden, basierend auf ein Profil. Mehr Daten können besser personalisierte Werbungen und Inhalte hinzufügen. Werbung und Inhalte können gezeigt und gemessen werden. Einblicke über das Publikum, welche die Werbung gesehen haben und den Inhalt, können abgeleitet werden. So wie Daten können genutzt werden, um es zu verbessern oder die Benutzer Erfahrung zu verbessern das System und die Software.

Wenn du “Ich stimme zu” klickst, erlaubst du uns, die Cookies zu benutzen die Geräte Bezeichnung, den Web oder ähnliche Technologien zu benutzen. Deine Settings, können in deinem Gerät bei deinem Browser geändert werden.

Für den bestimmten Zweck, berechtigten Interessen beruhen darauf, mehr als auf den Inhalt. Du kannst mehr darüber in unseren Privaten und Cookie Politik lesen.